Previsão horária em Judyty

Hoje, 14 Junho, Segunda-feira

Tempo Temperatura Precipitação Vento Pressão Humidade
00:00 +9°C° 0 mm 2 m/s 763 mmHg 93%
01:00 +9°C° 0 mm 2 m/s 763 mmHg 93%
02:00 +9°C° 0 mm 2 m/s 763 mmHg 93%
03:00 +9°C° 0 mm 2 m/s 763 mmHg 93%
04:00 +9°C° 0 mm 2 m/s 763 mmHg 93%
05:00 +12°C° 0 mm 2 m/s 763 mmHg 86%
06:00 +14°C° 0 mm 1 m/s 763 mmHg 80%
07:00 +16°C° 0 mm 1 m/s 763 mmHg 73%
08:00 +18°C° 0 mm 1 m/s 763 mmHg 69%
09:00 +19°C° 0 mm 1 m/s 763 mmHg 64%
10:00 +21°C° 0 mm 1 m/s 763 mmHg 59%
11:00 +22°C° 0 mm 1 m/s 763 mmHg 57%
12:00 +22°C° 0 mm 1 m/s 763 mmHg 54%
13:00 +23°C° 0 mm 1 m/s 762 mmHg 52%
14:00 +23°C° 0 mm 1 m/s 762 mmHg 53%
15:00 +23°C° 0 mm 2 m/s 761 mmHg 53%
16:00 +24°C° 0 mm 2 m/s 761 mmHg 54%
17:00 +21°C° 0 mm 2 m/s 761 mmHg 61%
18:00 +20°C° 0 mm 2 m/s 761 mmHg 69%
19:00 +19°C° 0 mm 2 m/s 760 mmHg 76%
20:00 +18°C° 0 mm 2 m/s 760 mmHg 79%
21:00 +16°C° 0 mm 2 m/s 760 mmHg 82%
22:00 +14°C° 0 mm 3 m/s 760 mmHg 84%
23:00 +14°C° 0 mm 3 m/s 760 mmHg 85%

Amanhã, 15 Junho, Terça-feira

Tempo Temperatura Precipitação Vento Pressão Humidade
00:00 +13°C° 0 mm 3 m/s 760 mmHg 85%
01:00 +13°C° 0 mm 3 m/s 760 mmHg 85%
02:00 +13°C° 0 mm 3 m/s 760 mmHg 85%
03:00 +13°C° 0 mm 3 m/s 760 mmHg 85%
04:00 +14°C° 0 mm 3 m/s 759 mmHg 84%
05:00 +16°C° 0 mm 3 m/s 760 mmHg 82%
06:00 +17°C° 0 mm 3 m/s 760 mmHg 80%
07:00 +18°C° 0 mm 3 m/s 760 mmHg 78%
08:00 +19°C° 0 mm 3 m/s 760 mmHg 76%
09:00 +20°C° 0 mm 3 m/s 760 mmHg 74%
10:00 +21°C° 0 mm 3 m/s 760 mmHg 72%
11:00 +20°C° 0.5 mm 3 m/s 760 mmHg 77%
12:00 +19°C° 0.5 mm 3 m/s 760 mmHg 82%
13:00 +18°C° 0.5 mm 4 m/s 760 mmHg 86%
14:00 +18°C° 0.2 mm 4 m/s 760 mmHg 83%
15:00 +18°C° 0.2 mm 3 m/s 760 mmHg 79%
16:00 +17°C° 0.2 mm 3 m/s 760 mmHg 76%
17:00 +17°C° 0 mm 3 m/s 760 mmHg 77%
18:00 +16°C° 0 mm 2 m/s 760 mmHg 79%
19:00 +15°C° 0 mm 2 m/s 760 mmHg 80%
20:00 +14°C° 0 mm 2 m/s 761 mmHg 82%
21:00 +12°C° 0 mm 1 m/s 761 mmHg 84%
22:00 +11°C° 0 mm 1 m/s 761 mmHg 86%
23:00 +11°C° 0 mm 1 m/s 761 mmHg 87%

Depois de amanhã, 16 Junho, Quarta-feira

Tempo Temperatura Precipitação Vento Pressão Humidade
00:00 +10°C° 0 mm 1 m/s 762 mmHg 88%
01:00 +10°C° 0 mm 1 m/s 762 mmHg 89%
02:00 +10°C° 0 mm 1 m/s 762 mmHg 89%
03:00 +10°C° 0 mm 1 m/s 762 mmHg 89%
04:00 +10°C° 0 mm 1 m/s 762 mmHg 89%
05:00 +12°C° 0 mm 1 m/s 762 mmHg 84%
06:00 +14°C° 0 mm 1 m/s 762 mmHg 79%
07:00 +16°C° 0 mm 1 m/s 763 mmHg 73%
08:00 +16°C° 0 mm 0 m/s 763 mmHg 68%
09:00 +17°C° 0 mm 0 m/s 763 mmHg 62%
10:00 +19°C° 0 mm 0 m/s 763 mmHg 57%
11:00 +20°C° 0 mm 0 m/s 763 mmHg 55%
12:00 +20°C° 0 mm 0 m/s 763 mmHg 53%
13:00 +23°C° 0 mm 1 m/s 763 mmHg 51%
14:00 +23°C° 0 mm 1 m/s 763 mmHg 52%
15:00 +23°C° 0 mm 1 m/s 762 mmHg 52%
16:00 +23°C° 0 mm 1 m/s 762 mmHg 53%
17:00 +21°C° 0 mm 2 m/s 762 mmHg 61%
18:00 +20°C° 0 mm 2 m/s 762 mmHg 69%
19:00 +18°C° 0 mm 2 m/s 762 mmHg 77%
20:00 +17°C° 0 mm 2 m/s 763 mmHg 81%
21:00 +16°C° 0 mm 2 m/s 763 mmHg 84%
22:00 +14°C° 0 mm 2 m/s 763 mmHg 88%
23:00 +14°C° 0 mm 2 m/s 763 mmHg 89%

17 Junho, Quinta-feira

Tempo Temperatura Precipitação Vento Pressão Humidade
00:00 +13°C° 0 mm 2 m/s 763 mmHg 89%
01:00 +13°C° 0 mm 2 m/s 763 mmHg 89%
02:00 +13°C° 0 mm 2 m/s 764 mmHg 89%
03:00 +13°C° 0 mm 2 m/s 764 mmHg 88%
04:00 +13°C° 0 mm 2 m/s 764 mmHg 87%
05:00 +14°C° 0 mm 3 m/s 764 mmHg 82%
06:00 +16°C° 0 mm 3 m/s 764 mmHg 76%
07:00 +18°C° 0 mm 3 m/s 764 mmHg 70%
08:00 +20°C° 0 mm 3 m/s 764 mmHg 65%
09:00 +21°C° 0 mm 3 m/s 764 mmHg 59%
10:00 +24°C° 0 mm 3 m/s 764 mmHg 54%
11:00 +23°C° 0 mm 4 m/s 764 mmHg 52%
12:00 +25°C° 0 mm 4 m/s 763 mmHg 50%
13:00 +26°C° 0 mm 4 m/s 763 mmHg 47%
14:00 +26°C° 0 mm 3 m/s 763 mmHg 50%
15:00 +26°C° 0 mm 3 m/s 763 mmHg 53%
16:00 +26°C° 0 mm 3 m/s 763 mmHg 55%
17:00 +25°C° 0 mm 3 m/s 763 mmHg 61%
18:00 +22°C° 0 mm 3 m/s 763 mmHg 68%
19:00 +21°C° 0 mm 3 m/s 762 mmHg 74%
20:00 +19°C° 0 mm 3 m/s 763 mmHg 76%
21:00 +18°C° 0 mm 3 m/s 763 mmHg 78%
22:00 +17°C° 0 mm 3 m/s 763 mmHg 80%
23:00 +16°C° 0 mm 3 m/s 763 mmHg 80%

18 Junho, Sexta-feira

Tempo Temperatura Precipitação Vento Pressão Humidade
00:00 +16°C° 0 mm 3 m/s 763 mmHg 81%
01:00 +16°C° 0 mm 3 m/s 762 mmHg 82%
02:00 +14°C° 0 mm 3 m/s 762 mmHg 83%
03:00 +14°C° 0 mm 3 m/s 762 mmHg 84%
04:00 +14°C° 0 mm 3 m/s 762 mmHg 85%
05:00 +17°C° 0 mm 3 m/s 762 mmHg 82%
06:00 +19°C° 0 mm 4 m/s 762 mmHg 78%
07:00 +21°C° 0 mm 4 m/s 762 mmHg 75%
08:00 +23°C° 0 mm 4 m/s 762 mmHg 71%
09:00 +25°C° 0 mm 5 m/s 762 mmHg 66%
10:00 +27°C° 0 mm 5 m/s 762 mmHg 62%
11:00 +28°C° 0 mm 5 m/s 762 mmHg 60%
12:00 +29°C° 0 mm 6 m/s 761 mmHg 59%
13:00 +29°C° 0 mm 6 m/s 761 mmHg 57%
14:00 +30°C° 0 mm 6 m/s 761 mmHg 59%
15:00 +30°C° 0 mm 5 m/s 761 mmHg 61%
16:00 +30°C° 0 mm 5 m/s 761 mmHg 63%
17:00 +29°C° 0 mm 4 m/s 761 mmHg 68%
18:00 +28°C° 0 mm 4 m/s 761 mmHg 73%
19:00 +26°C° 0 mm 3 m/s 761 mmHg 78%
20:00 +26°C° 0 mm 3 m/s 761 mmHg 79%
21:00 +25°C° 0 mm 4 m/s 761 mmHg 80%
22:00 +23°C° 0 mm 4 m/s 761 mmHg 81%
23:00 +22°C° 0 mm 4 m/s 761 mmHg 83%

19 Junho, Sábado

Tempo Temperatura Precipitação Vento Pressão Humidade
00:00 +22°C° 0 mm 4 m/s 761 mmHg 86%
01:00 +21°C° 0 mm 4 m/s 761 mmHg 89%
02:00 +21°C° 0 mm 4 m/s 761 mmHg 90%
03:00 +21°C° 0 mm 4 m/s 761 mmHg 92%
04:00 +20°C° 0 mm 4 m/s 761 mmHg 93%
05:00 +22°C° 0 mm 5 m/s 761 mmHg 88%
06:00 +23°C° 0 mm 5 m/s 761 mmHg 83%
07:00 +25°C° 0 mm 5 m/s 761 mmHg 78%
08:00 +26°C° 0 mm 6 m/s 761 mmHg 73%
09:00 +27°C° 0 mm 6 m/s 761 mmHg 68%
10:00 +29°C° 0 mm 6 m/s 761 mmHg 63%
11:00 +29°C° 0 mm 6 m/s 761 mmHg 60%
12:00 +30°C° 0 mm 6 m/s 761 mmHg 58%
13:00 +32°C° 0 mm 6 m/s 761 mmHg 56%
14:00 +32°C° 0 mm 6 m/s 761 mmHg 57%
15:00 +32°C° 0 mm 5 m/s 761 mmHg 58%
16:00 +30°C° 0 mm 5 m/s 760 mmHg 59%
17:00 +29°C° 0 mm 4 m/s 760 mmHg 65%
18:00 +28°C° 0 mm 4 m/s 760 mmHg 70%
19:00 +26°C° 0 mm 4 m/s 760 mmHg 75%
20:00 +26°C° 0 mm 4 m/s 761 mmHg 76%
21:00 +25°C° 0 mm 4 m/s 761 mmHg 77%
22:00 +23°C° 0 mm 5 m/s 761 mmHg 78%
23:00 +22°C° 0 mm 4 m/s 761 mmHg 79%
Mostrar mais

Necessitamos do seu Consentimento

A Meteoprog e os seus Fornecedores de Serviços podem armazenar e aceder a dados pessoais como cookies, identificadores do dispositivo ou outras tecnologias semelhantes existentes no seu dispositivo e processar estes dados para personalizar conteúdos e anúncios, assim como funcionalidades nas redes sociais e análise de tráfego.

  • Armazenar e/ou aceder a informações no seu dispositivo

    Os cookies, identificadores do dispositivo ou outras informações podem ser armazenados ou acedidos no seu dispositivo, para os fins acima indicados.

  • Anúncios e conteúdos personalizados, medição de anúncios e conteúdos, dados sobre o público-alvo e desenvolvimento de produtos

    Os anúncios e os conteúdos podem ser personalizados com base num perfil. Podem ser adicionados dados adicionais para uma maior personalização dos anúncios e dos conteúdos. A eficácia dos anúncios e dos conteúdos pode ser medida. Podem ser obtidas informações sobre o público que visualizou os anúncios e os conteúdos. Estes dados podem ser usados para desenvolver ou melhorar sistemas, softwares ou a experiência do utilizador.

Ao clicar em "Eu concordo”, permitirá o uso de cookies, identificadores do dispositivo e web beacons mencionados ou outras tecnologias semelhantes. As configurações do navegador do seu dispositivo podem ser alteradas.

Para certos fins, podem ser invocados interesses legítimos ao invés de consentimento. Pode ler mais informação sobre este assunto na nossa Política de Privacidade e Cookies.